User: anonymous   Login
Location: Unspecified
(40.7945°N, 0.0000°E)
Time: 05:00:15
(UTC+00:00)
Language:

Explorer 7 - Orbit

View from above orbital plane
View from above orbital plane
View from above satellite
View from above satellite

Ground track
Ground track

The orbit data is extracted from the following two-line orbital elements,

1 00022U 59009A   21208.59977769  .00000142  00000-0  33563-4 0  9990
2 00022  50.2851   0.4442 0138342   7.2211 353.0687 14.95632939530994
Epoch (UTC): 27 July 2021 14:23:40
Eccentricity: 0.0138342
inclination: 50.2851°
perigee height: 484 km
apogee height: 676 km
right ascension of ascending node: 0.4442°
argument of perigee: 7.2211°
revolutions per day: 14.95632939
mean anomaly at epoch: 353.0687°
orbit number at epoch: 53099

The dashed part of the orbit path shows where the satellite is in the earth's shadow,  

DLR